Weather History for KLWC - February, 2013

Change the Weather History Date:

Tuesday, February 5, 2013

  Actual Average Record
Temperature  
Mean Temperature 40 °F 32 °F  
Max Temperature 61 °F 43 °F - ()
Min Temperature 18 °F 21 °F - ()
Degree Days  
Heating Degree Days 25 33  
Month to date heating degree days 161 169  
Since 1 July heating degree days 3098 3320  
Cooling Degree Days 0 0  
Month to date cooling degree days 0 0  
Year to date cooling degree days 0 0  
Moisture  
Dew Point 24 °F    
Average Humidity 62    
Maximum Humidity 92    
Minimum Humidity 32    
Precipitation  
Precipitation 0.00 in 0.05 in - ()
Month to date precipitation 0.00 0.23  
Year to date precipitation 0.96 1.24  
Sea Level Pressure  
Sea Level Pressure 30.01 in    
Wind  
Wind Speed 6 mph (NNW)    
Max Wind Speed 21 mph    
Max Gust Speed 24 mph    
Visibility 8 miles    
Events      
T = Trace of Precipitation, MM = Missing Value Source: NWS Daily Summary

Daily Weather History Graph

Daily Weather History Graph

Search for Another Location

Airport or City:

Trip Planner

Search our weather history database for the weather conditions in past years. The results will help you decide how hot, cold, wet, or windy it might be!

Date:

Astronomy

Feb. 05, 2013 Rise Set
Actual Time 7:23 AM CST 5:47 PM CST
Civil Twilight 6:55 AM CST 6:14 PM CST
Nautical Twilight 6:23 AM CST 6:46 PM CST
Astronomical Twilight 5:52 AM CST 7:17 PM CST
Moon 3:05 AM CST (2/5) 1:06 PM CST (2/5)
Length of Visible Light 11h 19m
Length of Day
10h 23m
Waning Crescent, 26% of the Moon is Illuminated
Feb 5
Waning Crescent
Feb 10
New
Feb 17
First Quarter
Feb 25
Full
Mar 4
Last Quarter

Hourly Weather History & Observations

Time (CST) Temp. Windchill Dew Point Humidity Pressure Visibility Wind Dir Wind Speed Gust Speed Precip Events Conditions
12:52 AM 19.9 °F - 17.1 °F 89% 29.97 in 6.0 mi Calm Calm - N/A   Clear
1:52 AM 19.9 °F 14.9 °F 17.1 °F 89% 29.96 in 5.0 mi SE 3.5 mph - N/A   Clear
2:52 AM 19.9 °F - 17.1 °F 89% 29.95 in 5.0 mi Calm Calm - N/A   Clear
3:52 AM 19.9 °F - 18.0 °F 92% 29.95 in 4.0 mi Calm Calm - N/A   Clear
4:52 AM 21.9 °F 17.2 °F 19.0 °F 89% 29.94 in 5.0 mi East 3.5 mph - N/A   Clear
5:52 AM 21.0 °F 16.2 °F 19.0 °F 92% 29.95 in 5.0 mi North 3.5 mph - N/A   Clear
6:52 AM 23.0 °F 15.8 °F 19.9 °F 88% 29.97 in 5.0 mi WNW 5.8 mph - N/A   Clear
7:52 AM 25.0 °F - 21.0 °F 85% 29.98 in 4.0 mi Calm Calm - N/A   Clear
8:52 AM 32.0 °F 27.5 °F 26.1 °F 79% 30.00 in 5.0 mi West 4.6 mph - N/A   Haze
9:52 AM 39.0 °F 31.4 °F 28.9 °F 67% 30.00 in 7.0 mi West 12.7 mph - N/A   Clear
10:52 AM 45.0 °F 40.1 °F 30.0 °F 56% 30.01 in 8.0 mi WNW 9.2 mph - N/A   Clear
11:52 AM 51.1 °F - 30.0 °F 44% 30.02 in 10.0 mi WNW 12.7 mph - N/A   Clear
12:52 PM 55.9 °F - 30.9 °F 39% 30.01 in 10.0 mi NW 10.4 mph - N/A   Clear
1:52 PM 60.1 °F - 30.9 °F 33% 29.99 in 10.0 mi NNW 18.4 mph 23.0 mph N/A   Clear
2:52 PM 61.0 °F - 30.0 °F 31% 29.99 in 10.0 mi NW 12.7 mph - N/A   Clear
3:52 PM 60.1 °F - 30.9 °F 33% 30.01 in 10.0 mi North 9.2 mph - N/A   Clear
4:52 PM 57.0 °F - 28.9 °F 34% 30.02 in 10.0 mi North 10.4 mph - N/A   Clear
5:52 PM 50.0 °F - 27.0 °F 41% 30.03 in 10.0 mi NNE 8.1 mph - N/A   Clear
6:52 PM 46.0 °F 42.5 °F 24.1 °F 42% 30.06 in 10.0 mi NNE 6.9 mph - N/A   Clear
7:52 PM 44.1 °F 39.0 °F 25.0 °F 47% 30.08 in 10.0 mi NE 9.2 mph - N/A   Clear
8:52 PM 35.1 °F - 23.0 °F 61% 30.10 in 10.0 mi Calm Calm - N/A   Clear
9:52 PM 32.0 °F - 24.1 °F 73% 30.10 in 10.0 mi Calm Calm - N/A   Clear
10:52 PM 28.0 °F - 21.0 °F 75% 30.12 in 10.0 mi Calm Calm - N/A   Clear
11:52 PM 28.0 °F - 21.9 °F 78% 30.12 in 10.0 mi Calm Calm - N/A   Clear